FW3072 Weather Reports


time (UTC)temp
C
wind
direction
speed
KPH
gust
KPH
rain 1hr
cm
rain 24hr
cm
rain mn
cm
humidity
%
barometer
mb
20260905234226 21 360 0.0 0.0 0.00 0.00 0.00 70 1013.9
20260905233203 21 360 0.0 0.0 0.00 0.00 0.00 69 1014.0
20260905232204 22 360 0.0 0.0 0.00 0.00 0.00 68 1014.0
20260905231203 22 359 0.0 4.8 0.00 0.00 0.00 67 1013.9
20260905230204 22 359 0.0 8.0 0.00 0.00 0.00 66 1014.0
20260905225204 22 359 4.8 8.0 0.00 0.00 0.00 64 1013.9
20260905224204 22 359 4.8 9.7 0.00 0.00 0.00 64 1013.9
20260905223205 22 359 0.0 3.2 0.00 0.00 0.00 64 1013.8
20260905222203 22 359 4.8 9.7 0.00 0.00 0.00 64 1013.8
20260905221204 22 359 4.8 9.7 0.00 0.00 0.00 64 1013.9
20260905215204 22 360 0.0 6.4 0.00 0.00 0.00 65 1013.7
20260905214204 22 360 0.0 6.4 0.00 0.00 0.00 64 1013.6
20260905213204 22 359 4.8 14.5 0.00 0.00 0.00 64 1013.6
20260905212204 23 359 4.8 12.9 0.00 0.00 0.00 63 1013.5
20260905211204 23 359 1.6 12.9 0.00 0.00 0.00 64 1013.5
20260905210225 23 359 8.0 16.1 0.00 0.00 0.00 63 1013.4
20260905205206 23 359 4.8 14.5 0.00 0.00 0.00 63 1013.4
20260905204204 23 359 1.6 16.1 0.00 0.00 0.00 64 1013.4
20260905203205 23 359 1.6 9.7 0.00 0.00 0.00 64 1013.4
20260905202204 23 359 4.8 12.9 0.00 0.00 0.00 64 1013.4
20260905201203 22 359 4.8 8.0 0.00 0.00 0.00 64 1013.4
20260905200204 22 359 6.4 12.9 0.00 0.00 0.00 66 1013.5
20260905195203 22 360 0.0 6.4 0.00 0.00 0.00 65 1013.5
20260905194225 23 359 0.0 16.1 0.00 0.00 0.00 64 1013.6
20260905193225 23 359 6.4 12.9 0.00 0.00 0.00 64 1013.5
20260905192204 22 360 0.0 8.0 0.00 0.00 0.00 65 1013.5
20260905191204 23 359 0.0 9.7 0.00 0.00 0.00 65 1013.7
20260905190203 24 359 6.4 12.9 0.00 0.00 0.00 63 1013.9
20260905185204 24 1 1.6 12.9 0.00 0.00 0.00 63 1013.9
20260905184204 24 359 6.4 9.7 0.00 0.00 0.00 63 1014.0
20260905183204 24 359 4.8 17.7 0.00 0.00 0.00 62 1013.9
20260905182204 24 359 4.8 16.1 0.00 0.00 0.00 64 1013.9
20260905181225 24 359 1.6 9.7 0.00 0.00 0.00 64 1013.7
20260905180203 23 7 3.2 8.0 0.00 0.00 0.00 67 1013.6
20260905175203 23 360 0.0 6.4 0.00 0.00 0.00 66 1013.7
20260905174205 23 0 1.6 12.9 0.00 0.00 0.00 66 1013.6
20260905173204 23 359 4.8 17.7 0.00 0.00 0.00 66 1013.7
20260905172225 23 359 4.8 8.0 0.00 0.00 0.00 66 1013.7
20260905171205 23 359 3.2 14.5 0.00 0.00 0.00 65 1013.8
20260905170204 23 359 3.2 9.7 0.00 0.00 0.00 66 1013.7
20260905165203 23 359 4.8 16.1 0.00 0.00 0.00 67 1013.8
20260905164226 22 359 4.8 17.7 0.00 0.00 0.00 68 1013.7
20260905163203 22 359 4.8 8.0 0.00 0.00 0.00 73 1013.8
20260905162204 22 359 1.6 12.9 0.00 0.00 0.00 71 1013.9
20260905161226 22 359 4.8 9.7 0.00 0.00 0.00 73 1013.8
20260905160205 22 1 8.0 19.3 0.00 0.00 0.00 74 1013.9
20260905155204 21 0 6.4 17.7 0.00 0.00 0.00 74 1014.0
20260905154203 21 0 6.4 14.5 0.00 0.00 0.00 76 1014.0
20260905153204 21 359 0.0 9.7 0.00 0.00 0.00 77 1013.9
20260905152224 21 0 3.2 9.7 0.00 0.00 0.00 78 1014.0
20260905151205 21 359 3.2 14.5 0.00 0.00 0.00 80 1014.2
20260905150204 20 359 8.0 16.1 0.00 0.00 0.00 80 1014.2
20260905145226 20 359 3.2 16.1 0.00 0.00 0.00 82 1014.1
20260905144204 19 359 1.6 8.0 0.00 0.00 0.00 83 1014.1
20260905143225 19 359 1.6 8.0 0.00 0.00 0.00 84 1014.1
20260905142203 19 360 0.0 6.4 0.00 0.00 0.00 85 1014.1
20260905141204 18 359 0.0 8.0 0.00 0.00 0.00 88 1014.1
20260905140203 18 2 3.2 12.9 0.00 0.00 0.00 89 1014.1
20260905135205 18 359 6.4 9.7 0.00 0.00 0.00 91 1014.2
20260905134203 18 359 0.0 4.8 0.00 0.00 0.00 93 1014.1
20260905133204 18 2 1.6 8.0 0.00 0.00 0.00 94 1014.2
20260905132203 18 359 0.0 6.4 0.00 0.00 0.00 94 1014.1
20260905131205 17 359 0.0 8.0 0.00 0.00 0.00 94 1014.2
20260905130204 17 359 0.0 4.8 0.00 0.00 0.00 95 1014.3
20260905125203 17 359 1.6 6.4 0.00 0.00 0.00 95 1014.2
20260905124204 17 359 0.0 3.2 0.00 0.00 0.00 95 1014.3
20260905123203 16 359 0.0 3.2 0.00 0.00 0.00 95 1014.3
20260905122206 16 360 0.0 1.6 0.00 0.00 0.00 94 1014.3
20260905121204 16 360 0.0 0.0 0.00 0.00 0.00 94 1014.4
20260905115204 15 360 0.0 0.0 0.00 0.00 0.00 94 1014.2
20260905114204 15 360 0.0 0.0 0.00 0.00 0.00 94 1014.1
20260905113205 15 360 0.0 0.0 0.00 0.00 0.00 94 1014.0
20260905112205 15 360 0.0 0.0 0.00 0.00 0.00 94 1013.8
20260905110205 15 360 0.0 0.0 0.00 0.00 0.00 94 1013.6
20260905105227 15 360 0.0 0.0 0.00 0.00 0.00 94 1013.5
20260905104205 15 360 0.0 0.0 0.00 0.00 0.00 94 1013.5
20260905103247 15 360 0.0 0.0 0.00 0.00 0.00 94 1013.3
20260905102203 15 360 0.0 0.0 0.00 0.00 0.00 93 1013.4
20260905101205 15 360 0.0 0.0 0.00 0.00 0.00 93 1013.6
20260905100205 15 360 0.0 0.0 0.00 0.00 0.00 93 1013.3
20260905095203 15 360 0.0 0.0 0.00 0.00 0.00 93 1013.5
20260905094204 15 360 0.0 0.0 0.00 0.00 0.00 93 1013.3
20260905093203 15 360 0.0 0.0 0.00 0.00 0.00 93 1013.3
20260905092204 15 360 0.0 0.0 0.00 0.00 0.00 93 1013.1
20260905091203 15 360 0.0 0.0 0.00 0.00 0.00 93 1013.1
20260905090204 15 360 0.0 0.0 0.00 0.00 0.00 93 1012.8
20260905085203 15 360 0.0 0.0 0.00 0.00 0.00 93 1012.9
20260905084205 16 360 0.0 0.0 0.00 0.00 0.00 93 1012.6
20260905083205 16 360 0.0 0.0 0.00 0.00 0.00 93 1012.7
20260905082206 16 360 0.0 0.0 0.00 0.00 0.00 93 1012.5
20260905081205 16 360 0.0 0.0 0.00 0.00 0.00 93 1012.6
20260905080203 16 360 0.0 0.0 0.00 0.00 0.00 93 1012.6
20260905075204 16 360 0.0 0.0 0.00 0.00 0.00 93 1012.7
20260905074203 16 360 0.0 0.0 0.00 0.00 0.00 93 1012.8
20260905073227 16 360 0.0 0.0 0.00 0.00 0.00 93 1012.8
20260905072206 16 360 0.0 0.0 0.00 0.00 0.00 92 1012.9
20260905071204 16 360 0.0 0.0 0.00 0.00 0.00 93 1012.9
20260905070204 16 360 0.0 0.0 0.00 0.00 0.00 92 1013.0
20260905065205 16 360 0.0 0.0 0.00 0.00 0.00 92 1013.1
20260905064204 16 360 0.0 0.0 0.00 0.00 0.00 92 1013.1
20260905063204 16 360 0.0 0.0 0.00 0.00 0.00 92 1013.1
20260905062224 16 360 0.0 0.0 0.00 0.00 0.00 92 1013.2
20260905061204 16 360 0.0 0.0 0.00 0.00 0.00 91 1013.3
20260905060203 16 360 0.0 0.0 0.00 0.00 0.00 91 1013.3
20260905055226 16 360 0.0 0.0 0.00 0.00 0.00 91 1013.4
20260905054204 16 360 0.0 0.0 0.00 0.00 0.00 91 1013.4
20260905053205 17 360 0.0 0.0 0.00 0.00 0.00 91 1013.3
20260905052204 17 360 0.0 0.0 0.00 0.00 0.00 91 1013.4
20260905051226 17 360 0.0 0.0 0.00 0.00 0.00 90 1013.4
20260905050204 17 360 0.0 0.0 0.00 0.00 0.00 90 1013.4
20260905045203 17 360 0.0 0.0 0.00 0.00 0.00 90 1013.3
20260905044203 17 360 0.0 0.0 0.00 0.00 0.00 90 1013.4
20260905043205 17 360 0.0 0.0 0.00 0.00 0.00 90 1013.5
20260905042204 17 360 0.0 0.0 0.00 0.00 0.00 89 1013.4
20260905041226 18 360 0.0 0.0 0.00 0.00 0.00 89 1013.4
20260905040203 18 360 0.0 0.0 0.00 0.00 0.00 89 1013.4
20260905035204 18 360 0.0 0.0 0.00 0.00 0.00 89 1013.4
20260905034205 18 360 0.0 0.0 0.00 0.00 0.00 88 1013.5
20260905033204 18 360 0.0 0.0 0.00 0.00 0.00 88 1013.4
20260905032203 18 360 0.0 0.0 0.00 0.00 0.00 88 1013.4
20260905031204 18 360 0.0 0.0 0.00 0.00 0.00 88 1013.2
20260905030204 18 360 0.0 0.0 0.00 0.00 0.00 87 1013.3
20260905025204 19 360 0.0 0.0 0.00 0.00 0.00 87 1013.3
20260905024205 19 360 0.0 0.0 0.00 0.00 0.00 87 1013.3
20260905023224 20 360 0.0 0.0 0.00 0.00 0.00 86 1013.4
20260905022205 20 360 0.0 0.0 0.00 0.00 0.00 86 1013.3
20260905021204 20 360 0.0 0.0 0.00 0.00 0.00 85 1013.3
20260905020204 20 360 0.0 0.0 0.00 0.00 0.00 85 1013.3
20260905015203 20 360 0.0 0.0 0.00 0.00 0.00 85 1013.3
20260905014225 20 360 0.0 0.0 0.00 0.00 0.00 85 1013.3
20260905013204 21 360 0.0 0.0 0.00 0.00 0.00 85 1013.4
20260905012203 21 360 0.0 0.0 0.00 0.00 0.00 85 1013.4
20260905011205 21 360 0.0 0.0 0.00 0.00 0.00 85 1013.5
20260905010205 21 360 0.0 0.0 0.00 0.00 0.00 84 1013.5
20260905005203 21 360 0.0 0.0 0.00 0.00 0.00 84 1013.4
20260905004204 21 360 0.0 0.0 0.00 0.00 0.00 84 1013.4
20260905003203 21 360 0.0 0.0 0.00 0.00 0.00 83 1013.3
20260905001226 21 360 0.0 0.0 0.00 0.05 0.00 83 1013.0
20260905000204 21 360 0.0 0.0 0.00 0.08 0.00 82 1012.9
20260904235203 22 360 0.0 0.0 0.00 0.13 0.00 80 1012.9